Tracking 31027 objects as of 19-Jul-2025
HD Live streaming from Space Station
objects crossing your sky now

SL-6 R/B(2)

Track SL-6 R/B(2) now!
10-day predictions


NORAD ID: 12827
Int'l Code: 1981-088F
Perigee: 734.9 km
Apogee: 13,675.3 km
Inclination: 62.9 °
Period: 262.4 minutes
Semi major axis: 13576 km
RCS: 6.5355 m2 (large)
Launch date: September 11, 1981
Source: Commonwealth of Independent States (former USSR) (CIS)
Launch site: PLESETSK MISSILE AND SPACE COMPLEX (PKMTR)

Note: This is a ROCKET BODY
Your satellite tracking list
STARLINK-30236
Track 1 satellite(s)




NASA's NSSDC Master Catalog

Two Line Element Set (TLE):
1 12827U 81088F   25199.58380282  .00000067  00000-0  92966-4 0  9996
2 12827  62.9234 186.4817 4765878 232.2618  74.3257  5.48833915878953
Source of the keplerian elements: AFSPC